SBSPSBRJ

Guest
Details From SBSP - Sao Paulo Congonhas
To SBRJ - Santos-Dumont
Flight Number -
Tags decoded
Created
Modified
Stats Distance 197 nm / 366 km
Max Altitude 0 ft / 0 m
Waypoints 2
Social Downloads 2
Likes 0
Share VATSIM

Download

Looking for another format? Having issues loading an existing format? Contact us
Advertisement - Login to hide

Notes

Requested: SBSP SBRJ

Route

SBSP SBRJ

ID Type Via Altitude (ft/m) Position (lat/lon) Dist (leg/tot) Name
O SBSP APT - 0 / 0 -23.62669 / -46.65538 - / 0 nm Sao Paulo Congonhas
O SBRJ APT - 0 / 0 -22.91046 / -43.16313 197 / 197 nm Santos-Dumont

Altitude Profile

Advertisement - Login to hide

Weather


0- 5 10 15 20 25 30 35+ Temperature / °C

Clouds and Precipitation
Forecast for 2020-04-06 12:00 UTC. Updated 6 hours ago

Ground ~20,000 ft ~40,000 ft Winds

SBSP

Details ICAO SBSP (CGH)
Name Congonhas-Sao Paulo
Region Brazil
Timezone America/Sao_Paulo (UTC-3.0)
Stats Elevation 2,631 ft / 802 m (AMSL)
Location -23.626700° -46.655200°
Runways 2
Magnetic Variation 21.583° W

METAR

SBSP 061500Z 32009KT 270V350 CAVOK 28/12 Q1019

Decode

TAF

TAF SBSP 061000Z 0612/0624 03005KT 9000 OVC006 TN20/0612Z TX30/0618Z BECMG 0612/0614 9999 FEW006 BECMG 0614/0616 30009KT FEW040 BECMG 0620/0622 35006KT RMK PHH

Decode

Departure Runways

ID Width Length Bearing (true/mag) Surface Threshold Overrun Markings Lighting
17L 148 ft / 45 m 4,920 ft / 1,500 m 147.63° / 169.22° ASPHALT 197 ft / 60 m 0 ft / 0 m APP EDGE THRESHOLD
17R 148 ft / 45 m 6,360 ft / 1,938 m 147.63° / 169.22° ASPHALT 407 ft / 124 m 0 ft / 0 m PREC-APP EDGE THRESHOLD ALSF-I TDZ
35L 148 ft / 45 m 6,360 ft / 1,938 m 327.63° / 349.21° ASPHALT 180 ft / 55 m 0 ft / 0 m PREC-APP EDGE THRESHOLD
35R 148 ft / 45 m 4,920 ft / 1,500 m 327.63° / 349.21° ASPHALT 0 ft / 0 m 0 ft / 0 m APP EDGE THRESHOLD

SBRJ

Details ICAO SBRJ (SDU)
Name Santos Dumont-Rio de Janeiro
Region Brazil
Timezone Unknown
Stats Elevation 10 ft / 3 m (AMSL)
Location -22.910500° -43.163200°
Runways 2
Magnetic Variation 23.013° W

METAR

SBRJ 061500Z 16010KT 9999 FEW025 26/21 Q1014

Decode

TAF

TAF SBRJ 060900Z 0612/0624 15008KT 9999 FEW020 TN24/0612Z TX26/0618Z BECMG 0615/0617 BECMG 0618/0620 18008KT FEW025 RMK PAY

Decode

Destination Runways

ID Width Length Bearing (true/mag) Surface Threshold Overrun Markings Lighting
02L 98 ft / 30 m 4,113 ft / 1,254 m 356.54° / 19.55° ASPHALT 0 ft / 0 m 0 ft / 0 m PREC-APP EDGE THRESHOLD REIL-OMNI
02R 138 ft / 42 m 4,328 ft / 1,319 m 356.56° / 19.57° ASPHALT 0 ft / 0 m 0 ft / 0 m PREC-APP EDGE THRESHOLD REIL-OMNI
20L 138 ft / 42 m 4,328 ft / 1,319 m 176.56° / 199.57° ASPHALT 0 ft / 0 m 0 ft / 0 m PREC-APP EDGE THRESHOLD REIL-OMNI
20R 98 ft / 30 m 4,113 ft / 1,254 m 176.54° / 199.55° ASPHALT 0 ft / 0 m 0 ft / 0 m PREC-APP EDGE THRESHOLD REIL-OMNI

Approach Navaids

Runway Type Ident Frequency Range Bearing (true/mag) Slope Elevation
20L LOC-LOC IRJ 111.10 MHz 18 nm / 33 km 172.42° / 195.43 ° - 11 ft / 3 m (AMSL)

Popular Alternatives